“In life, you're either a passenger or a pilot. It’s your choice.”

WELCOME TO YOUR AVIATION DREAM!

What's new Up There Icon

WHAT’S NEW HERE?

4000+ aviation terms, acronyms and definitions!
Make your study a little easier with the aviation glossaries that gather over 4000 terms and acronyms extracted from weather, communications, technical and more general topics…
Partnership Icon

PARTNESHIP ANNOUNCEMENT

I am proud to announce a partnership with nizul Logo, study partner of every pilot who wants to consolidate their ground school knowledge and master their written examination.

Try Me Icon

ALL YOURS FOR 30 MINUTES!

Not sure you’d get along with a freelance instructor? How about giving it a try with a 30 minute flight?
My treat! All free.

Resources Tool Box

STUDENT RESOURCES

As a registered student training with me, you get access to a whole lot of files, tools, documents, aviation glossaries, videos, quizzes, sample tests, etc… 

Control Tower Icon

QUESTIONS? CHECK F.A.Q.

In aviation, the only stupid question is the one you didn’t ask. And there is a big chance yours has already been answered in the FAQ. Check it out!

Brain Icon

ARE YOU WIRED FOR FLYING?

Flying an aircraft is usually not the most difficult part of the “problem” and it takes a certain mindset to deal with the other aspects of a flight. Find out wether…

THEY DID IT!

Meet those who refused to be the passengers of their lives, and learn about their experience.

QUICK FACTS

Aviation is a world of serious numbers.
Here are my own, and they count as much as the other ones.

0
YEARS OF
WISDOM
0
YEARS OF
SKY FUN
0
AMAZING
STUDENTS
0
HOURS OF
PURE EXCITEMENT

Grow some wings,
Come fly with me!

Vancouver Island Weather

METARs and TAFs.
VICTORIA INTL (CYYJ)
METAR:

CYYJ 161651Z 14012G18KT 15SM -RA FEW016 BKN040 BKN054 12/12 A2989 RMK SC1SC6SC1 SC TR SLP125

TAF:

TAF TAF CYYJ 161138Z 1612/1712 14012G22KT P6SM SCT015 SCT030 BKN050 TEMPO 1612/1617 2SM -RA BR SCT008 BKN015 OVC030 FM161700 13010G20KT P6SM SCT015 OVC040 TEMPO 1617/1701 5SM -SHRA BR BKN015 BECMG 1623/1701 29006KT FM170100 30006KT P6SM SCT015 OVC040 TEMPO 1701/1707 2SM -SHRA BR BKN015 FM170700 VRB03KT 5SM BR SCT005 OVC025 TEMPO 1707/1712 1SM -RA -DZ BR BKN005 RMK NXT FCST BY 161800Z

NANAIMO (CYCD)
METAR:

CYCD 161634Z VRB02KT 2 1/2SM RA BR BKN005 OVC030 12/12 A2987 RMK SF7SC1 CIG RAG SLP118

TAF:

TAF AMD TAF AMD CYCD 161654Z 1616/1703 15005KT 2SM RA BR BKN005 OVC030 TEMPO 1616/1618 6SM -RA BR SCT005 OVC030 BECMG 1616/1618 15010KT FM161800 15010KT P6SM -RA SCT008 OVC030 TEMPO 1618/1703 4SM -RA BR BKN008 RMK NXT FCST BY 161800Z

LONG BEACH (CYAZ)
METAR:

CYAZ 161652Z 13006KT 1SM -RA BR OVC003 12/12 A2982 RMK FG2SF6 SLP100

TAF:

TAF AMD TAF AMD CYAZ 161628Z 1616/1701 15006KT 1SM RA BR OVC002 TEMPO 1616/1701 3SM -RA BR SCT003 OVC012 RMK NXT FCST BY 161900Z

For more in-depth weather information, please, check Collaborative Flight Planning Service

For all Runway conditions in CYYJ, please check

IIDS Web View

Windy’s Forecast & Observations